Weather reports worldwide

Advertisment
Capo Palinuro, Italy (16310): temperature & dewpoint: 12.10.2018 03:00:00 - 18.10.2018 03:00:00 (CEST)Capo Palinuro, Italy (16310): wind speed: 12.10.2018 03:00:00 - 18.10.2018 03:00:00 (CEST)Capo Palinuro, Italy (16310): wind direction: 12.10.2018 03:00:00 - 18.10.2018 03:00:00 (CEST)Capo Palinuro, Italy (16310): reduced air pressure: 12.10.2018 03:00:00 - 18.10.2018 03:00:00 (CEST)Capo Palinuro, Italy (16310): visibility: 12.10.2018 03:00:00 - 18.10.2018 03:00:00 (CEST)Capo Palinuro, Italy (16310): sunshine duration: 12.10.2018 03:00:00 - 18.10.2018 03:00:00 (CEST)
Date & Time tt [°C] td [°C] ff [km/h] ff [kn] dd ppp [hPa] vv [km] sd [min]
18.10.2018 03:00:00 22,2 18,6 4 2 S 1013,4 20 -
18.10.2018 02:00:00 22,2 18,6 5 3 WSW 1013,4 20 -
18.10.2018 01:00:00 22,6 19,0 5 3 SSW 1013,3 20 -
18.10.2018 00:00:00 22,6 19,4 5 3 SSW 1013,3 20 -
17.10.2018 23:00:00 22,6 20,3 9 5 N 1014,4 20 -
17.10.2018 22:00:00 22,6 20,3 8 4 NNE 1014,4 20 -
17.10.2018 21:00:00 22,6 20,1 9 5 S 1014,2 20 -
17.10.2018 20:00:00 23,0 20,0 9 5 SSW 1014,2 20 -
17.10.2018 19:00:00 23,0 20,3 8 4 S 1014,3 20 -
17.10.2018 18:00:00 23,0 18,8 5 3 W 1014,4 20 60
17.10.2018 17:00:00 24,0 19,7 11 6 SSW 1014,3 20 48
17.10.2018 16:00:00 25,0 18,2 11 6 WSW 1014,2 20 60
17.10.2018 15:00:00 25,0 18,7 9 5 SSW 1015,8 20 60
17.10.2018 14:00:00 25,0 18,2 13 7 SW 1015,8 20 60
17.10.2018 13:00:00 25,0 18,2 11 6 WSW 1015,7 20 60
17.10.2018 12:00:00 25,0 18,2 5 3 SW 1015,7 20 60
17.10.2018 11:00:00 24,0 17,7 11 6 WSW 1015,8 20 60
17.10.2018 10:00:00 23,0 18,3 8 4 SSE 1016,1 20 60
17.10.2018 09:00:00 22,0 19,0 9 5 NNE 1015,8 20 60
17.10.2018 08:00:00 21,4 18,8 8 4 ENE 1015,8 20 -
17.10.2018 07:00:00 21,0 18,9 9 5 E 1015,8 20 -
17.10.2018 06:00:00 21,0 18,9 0 0 N 1016,2 20 -
17.10.2018 05:00:00 21,0 18,9 0 0 N 1016,6 20 -
17.10.2018 04:00:00 21,4 18,8 0 0 N 1016,8 20 -
17.10.2018 03:00:00 22,4 19,8 0 0 N 1016,9 15 -
17.10.2018 02:00:00 22,0 19,4 0 0 N 1017,0 15 -
17.10.2018 01:00:00 22,0 19,4 0 0 N 1017,2 15 -
17.10.2018 00:00:00 22,0 19,4 0 0 N 1017,3 15 -
16.10.2018 23:00:00 22,0 20,3 0 0 N 1017,4 15 -
16.10.2018 22:00:00 22,0 19,9 0 0 N 1017,3 15 -
16.10.2018 21:00:00 22,4 20,7 0 0 N 1016,9 15 -
16.10.2018 20:00:00 23,0 20,0 0 0 N 1016,6 20 -
16.10.2018 19:00:00 23,0 20,2 0 0 N 1016,6 20 -
16.10.2018 18:00:00 23,4 19,8 8 4 S 1016,6 20 -
16.10.2018 17:00:00 24,0 19,9 11 6 SSE 1016,5 20 60
16.10.2018 16:00:00 25,0 20,5 8 4 S 1016,4 20 60
16.10.2018 15:00:00 25,2 18,9 15 8 ESE 1016,4 20 60
16.10.2018 14:00:00 25,2 18,9 9 5 S 1016,3 20 60
16.10.2018 13:00:00 24,4 19,0 11 6 NNE 1016,3 20 60
16.10.2018 12:00:00 24,4 18,6 15 8 NNE 1016,3 20 60
16.10.2018 11:00:00 22,8 18,1 0 0 N 1016,4 20 60
16.10.2018 10:00:00 22,6 17,5 8 4 SSE 1016,4 20 60
16.10.2018 09:00:00 22,4 17,8 15 8 E 1015,6 20 48
16.10.2018 08:00:00 22,0 18,4 11 6 ESE 1015,5 20 48
16.10.2018 07:00:00 22,0 18,4 11 6 SSE 1015,6 20 0
16.10.2018 06:00:00 22,0 18,0 11 6 SE 1015,5 20 -
16.10.2018 05:00:00 22,0 18,4 15 8 ESE 1015,5 20 -
16.10.2018 04:00:00 22,2 18,0 8 4 ESE 1015,6 20 -
16.10.2018 03:00:00 - - - - - - - -
16.10.2018 02:00:00 22,4 18,4 15 8 ESE 1015,7 20 -
16.10.2018 01:00:00 22,4 18,4 9 5 ESE 1015,6 20 -
16.10.2018 00:00:00 22,6 19,0 9 5 SSE 1015,5 20 -
15.10.2018 23:00:00 22,4 18,8 11 6 SE 1015,2 20 -
15.10.2018 22:00:00 23,0 19,0 9 5 ESE 1014,4 20 -
15.10.2018 21:00:00 23,0 19,0 9 5 SSE 1014,4 20 -
15.10.2018 20:00:00 23,0 18,8 11 6 ESE 1014,4 20 -
15.10.2018 19:00:00 23,6 18,9 9 5 ESE 1014,3 20 -
15.10.2018 18:00:00 23,6 18,9 9 5 SSE 1014,3 20 30
15.10.2018 17:00:00 24,0 19,5 15 8 SSE 1014,3 20 0
15.10.2018 16:00:00 24,0 19,3 0 0 N 1014,3 20 0
15.10.2018 15:00:00 24,0 18,2 11 6 SE 1014,3 20 30
15.10.2018 14:00:00 24,0 18,2 15 8 SSE 1014,3 20 60
15.10.2018 13:00:00 24,0 17,5 18 10 SSE 1014,3 20 60
15.10.2018 12:00:00 23,8 18,2 9 5 SSE 1014,2 20 60
15.10.2018 11:00:00 23,0 18,3 9 5 SSE 1014,2 20 30
15.10.2018 10:00:00 22,0 18,0 13 7 W 1013,6 20 0
15.10.2018 09:00:00 22,0 17,8 13 7 NNW 1013,5 20 0
15.10.2018 08:00:00 21,4 16,6 15 8 NW 1013,7 20 0
15.10.2018 07:00:00 21,2 17,2 9 5 NNW 1013,8 20 -
15.10.2018 06:00:00 21,2 16,8 11 6 WNW 1013,8 20 -
15.10.2018 05:00:00 21,2 17,0 11 6 NW 1014,0 20 -
15.10.2018 04:00:00 21,2 17,2 15 8 NW 1014,5 20 -
15.10.2018 03:00:00 21,0 16,8 11 6 NW 1015,2 20 -
15.10.2018 02:00:00 20,6 17,4 15 8 W 1015,5 20 -
15.10.2018 01:00:00 20,0 18,7 13 7 WNW 1015,7 20 -
15.10.2018 00:00:00 20,2 19,0 9 5 WNW 1016,2 20 -
14.10.2018 23:00:00 20,2 18,9 13 7 WNW 1016,4 20 -
14.10.2018 22:00:00 20,2 18,5 9 5 W 1016,1 20 -
14.10.2018 21:00:00 21,4 17,8 9 5 W 1015,9 20 -
14.10.2018 20:00:00 21,4 18,2 11 6 W 1015,8 20 -
14.10.2018 19:00:00 21,8 17,6 5 3 WNW 1015,8 20 -
14.10.2018 18:00:00 22,2 20,1 9 5 WNW 1015,9 20 0
14.10.2018 17:00:00 22,4 19,8 8 4 WSW 1016,1 20 0
14.10.2018 16:00:00 23,0 18,5 8 4 WSW 1016,3 20 0
14.10.2018 15:00:00 23,4 18,9 5 3 WNW 1016,7 20 6
14.10.2018 14:00:00 23,4 15,2 8 4 W 1017,4 20 18
14.10.2018 13:00:00 23,2 15,5 0 0 N 1017,9 20 0
14.10.2018 12:00:00 22,2 15,8 0 0 N 1017,9 20 6
14.10.2018 11:00:00 22,2 16,0 0 0 N 1017,8 20 30
14.10.2018 10:00:00 21,8 16,5 5 3 NW 1017,8 20 60
14.10.2018 09:00:00 20,0 16,0 9 5 WNW 1017,9 20 60
14.10.2018 08:00:00 20,4 16,2 15 8 ENE 1018,3 20 -
14.10.2018 07:00:00 20,0 16,8 8 4 WNW 1018,6 20 -
14.10.2018 06:00:00 20,0 17,0 4 2 WNW 1018,6 20 -
14.10.2018 05:00:00 20,4 16,8 5 3 WSW 1018,6 20 -
14.10.2018 04:00:00 20,4 17,4 5 3 W 1019,3 20 -
14.10.2018 03:00:00 20,4 17,4 4 2 WNW 1019,3 20 -
14.10.2018 02:00:00 21,0 18,0 4 2 WNW 1019,6 20 -
14.10.2018 01:00:00 21,0 18,0 8 4 WNW 1019,6 20 -
14.10.2018 00:00:00 21,4 17,4 4 2 WNW 1019,5 20 -
13.10.2018 23:00:00 21,4 16,8 8 4 WNW 1019,5 20 -
13.10.2018 22:00:00 21,8 16,5 8 4 WNW 1019,6 20 -
13.10.2018 21:00:00 21,0 17,4 4 2 NE 1019,6 20 -
13.10.2018 20:00:00 21,2 18,0 5 3 WNW 1019,5 20 -
13.10.2018 19:00:00 21,6 17,6 2 1 WNW 1019,7 20 -
13.10.2018 18:00:00 23,0 14,8 5 3 NNW 1019,5 20 -
13.10.2018 17:00:00 23,0 14,8 9 5 NW 1019,5 20 60
13.10.2018 16:00:00 24,0 15,8 15 8 NNW 1019,5 20 60
13.10.2018 15:00:00 24,0 16,3 8 4 SSW 1020,5 20 60
13.10.2018 14:00:00 23,6 15,9 5 3 SSW 1020,7 20 0
13.10.2018 13:00:00 23,8 14,8 13 7 WSW 1020,5 20 60
13.10.2018 12:00:00 23,0 11,7 13 7 SW 1020,6 20 -
13.10.2018 11:00:00 23,0 12,6 11 6 W 1020,6 20 60
13.10.2018 10:00:00 22,2 12,2 11 6 NNE 1020,2 20 60
13.10.2018 09:00:00 22,0 12,3 11 6 NNE 1020,1 20 60
13.10.2018 08:00:00 21,4 11,7 11 6 NNW 1020,2 20 30
13.10.2018 07:00:00 21,0 11,1 11 6 NW 1020,3 20 -
13.10.2018 06:00:00 21,0 10,8 9 5 NW 1020,3 18 -
13.10.2018 05:00:00 21,0 11,4 13 7 NNW 1020,6 18 -
13.10.2018 04:00:00 21,0 11,4 15 8 NW 1020,8 18 -
13.10.2018 03:00:00 20,6 12,1 15 8 NW 1021,0 18 -
13.10.2018 02:00:00 21,0 11,6 13 7 NW 1021,0 18 -
13.10.2018 01:00:00 21,0 12,2 15 8 WNW 1020,9 18 -
13.10.2018 00:00:00 21,4 12,5 11 6 SSE 1020,8 18 -
12.10.2018 23:00:00 21,2 13,1 11 6 W 1020,7 18 -
12.10.2018 22:00:00 21,4 14,5 8 4 WSW 1020,7 18 -
12.10.2018 21:00:00 21,4 15,7 9 5 SSW 1020,6 18 -
12.10.2018 20:00:00 21,4 19,7 9 5 S 1020,5 18 -
12.10.2018 19:00:00 22,0 20,1 9 5 SSE 1020,4 18 -
12.10.2018 18:00:00 22,0 20,3 9 5 WSW 1020,2 18 36
12.10.2018 17:00:00 22,4 20,3 13 7 W 1020,3 18 48
12.10.2018 16:00:00 23,0 20,9 9 5 SSE 1020,5 18 12
12.10.2018 15:00:00 23,0 21,1 13 7 S 1020,5 18 0
12.10.2018 14:00:00 22,8 20,2 15 8 WSW 1020,5 18 0
12.10.2018 13:00:00 22,6 19,4 9 5 SW 1020,5 18 12
12.10.2018 12:00:00 22,6 19,6 9 5 SSE 1020,3 18 12
12.10.2018 11:00:00 21,6 18,8 9 5 NNE 1019,9 10 0
12.10.2018 10:00:00 21,6 20,1 5 3 NE 1019,7 18 0
12.10.2018 09:00:00 21,6 19,9 5 3 NNE 1019,5 18 0
12.10.2018 08:00:00 21,2 17,2 0 0 N 1019,2 18 0
12.10.2018 07:00:00 21,4 17,8 5 3 NNE 1019,1 18 -
12.10.2018 06:00:00 - - - - - - - -
12.10.2018 05:00:00 21,4 17,6 5 3 NE 1019,1 10 -
12.10.2018 04:00:00 21,6 18,2 5 3 NE 1019,1 18 -
12.10.2018 03:00:00 21,4 18,0 8 4 NE 1019,2 18 -

tt = temperature
td = dewpoint
ff = wind speed
dd = wind direction
ppp = reduced air pressure
vv = visibility
sd = sunshine duration

Next stations